This demonstration page uses our WeatherBlox Daily Observations layout. Learn more.

Hourly Observations for August 10, 2017

Temp ( °F °C ) Dew Point ( °F °C ) Humidity (%) Winds ( mph kmh ) Pressure ( in mb ) Visibility ( mi km ) Precip ( " mm )
12:15 am 00:15 Clear 64 18 62 16.9 93 93 SW 5 7 30.03 1017 7 11.265408 0 0
12:35 am 00:35 Clear 65 18.1 63 17.1 94 94 SSW 7 11 30.03 1017 7 11.265408 0 0
12:55 am 00:55 Clear with Mist and Fog 65 18.1 63 17.1 94 94 SW 5 7 30.03 1017 5 8.04672 0 0
1:15 am 01:15 Clear with Mist and Fog 64 18 63 17.1 95 95 SW 6 9 30.03 1017 5 8.04672 0 0
1:35 am 01:35 Clear with Mist and Fog 65 18.3 64 17.5 95 95 SW 6 9 30.03 1017 5 8.04672 0 0
1:55 am 01:55 Clear with Mist and Fog 65 18.3 64 17.5 95 95 SW 6 9 30.03 1017 4 6.437376 0 0
2:15 am 02:15 Clear with Mist and Fog 65 18.1 63 17.3 95 95 SW 3 6 30.03 1017 5 8.04672 0 0
2:35 am 02:35 Clear with Mist and Fog 65 18.2 63 17.4 95 95 Calm 30.03 1017 5 8.04672 0 0
2:55 am 02:55 Partly Cloudy with Mist and Fog 64 17.6 62 16.8 95 95 SSW 5 7 30.03 1017 3 4.828032 0 0
3:15 am 03:15 Cloudy with Fog 64 17.5 62 16.7 95 95 SSW 3 6 30.03 1017 0.25 0.402336 0 0
3:35 am 03:35 Cloudy with Fog 63 17.2 62 16.5 96 96 SW 3 6 30.03 1017 0.25 0.402336 0 0
3:55 am 03:55 Cloudy with Fog 62 16.4 60 15.8 96 96 Calm 30.06 1018 0.5 0.804672 0 0
4:15 am 04:15 Cloudy with Fog 62 16.4 60 15.7 96 96 Calm 30.06 1018 0.25 0.402336 0 0
4:35 am 04:35 Cloudy with Fog 61 16 60 15.4 96 96 Calm 30.06 1018 0.25 0.402336 0 0
4:55 am 04:55 Cloudy with Fog 60 15.7 59 15.1 96 96 Calm 30.06 1018 0.25 0.402336 0 0
5:15 am 05:15 Cloudy with Fog 60 15.5 59 15 97 97 Calm 30.06 1018 0.5 0.804672 0 0
5:35 am 05:35 Cloudy with Fog 59 14.8 58 14.3 97 97 Calm 30.06 1018 0.5 0.804672 0 0
5:55 am 05:55 Mostly Cloudy with Fog 59 14.9 58 14.4 97 97 Calm 30.06 1018 0.5 0.804672 0 0
6:15 am 06:15 Mostly Cloudy with Mist and Fog 58 14.6 57 14.1 97 97 Calm 30.09 1019 0.75 1.207008 0 0
6:35 am 06:35 Partly Cloudy with Mist and Fog 58 14.5 57 14 97 97 NNW 5 7 30.09 1019 3 4.828032 0.01 0.254
6:55 am 06:55 Partly Cloudy with Mist and Fog 58 14.7 58 14.2 97 97 Calm 30.09 1019 4 6.437376 0.01 0.254
7:15 am 07:15 Sunny with Mist and Fog 58 14.7 58 14.2 97 97 Calm 30.09 1019 4 6.437376 0 0
7:35 am 07:35 Sunny with Mist and Fog 60 15.5 59 15 97 97 NNW 3 6 30.09 1019 5 8.04672 0 0
7:55 am 07:55 Sunny with Mist and Fog 61 16 60 15.5 97 97 Calm 30.09 1019 4 6.437376 0 0
8:15 am 08:15 Sunny with Mist and Fog 62 16.6 61 16.1 97 97 Calm 30.09 1019 4 6.437376 0 0
8:35 am 08:35 Sunny with Mist and Fog 64 17.6 63 17.1 97 97 Calm 30.06 1018 4 6.437376 0 0
8:55 am 08:55 Sunny with Mist and Fog 65 18.5 64 18 97 97 NNE 3 6 30.06 1018 5 8.04672 0 0
9:15 am 09:15 Sunny with Mist and Fog 66 19.1 65 18.5 96 96 N 3 6 30.06 1018 5 8.04672 0 0
9:35 am 09:35 Sunny 67 19.3 65 18.6 96 96 NNE 7 11 30.06 1018 10 16.09344 0 0
9:55 am 09:55 Sunny 67 19.3 65 18.5 95 95 N 7 11 30.06 1018 10 16.09344 0 0
10:15 am 10:15 Sunny 67 19.6 65 18.4 93 93 NNE 8 13 30.06 1018 10 16.09344 0 0
10:35 am 10:35 Sunny 70 20.9 65 18.4 86 86 NE 9 15 30.03 1017 10 16.09344 0 0
10:55 am 10:55 Sunny 69 20.7 63 17.4 81 81 NNE 7 11 30.03 1017 10 16.09344 0 0
11:15 am 11:15 Sunny 69 20.8 64 17.8 83 83 NE 6 9 30.03 1017 10 16.09344 0 0
11:35 am 11:35 Sunny 69 20.6 63 17.4 82 82 NE 7 11 30.06 1018 10 16.09344 0 0
11:55 am 11:55 Sunny 69 20.7 64 17.5 82 82 NE 8 13 30.03 1017 10 16.09344 0 0
12:15 pm 12:15 Sunny 69 20.5 62 16.7 79 79 NNE 8 13 30.06 1018 10 16.09344 0 0
12:35 pm 12:35 Mostly Cloudy 68 20.2 62 16.5 79 79 NNE 8 13 30.06 1018 10 16.09344 0 0
12:55 pm 12:55 Cloudy with Light Rain 68 19.9 62 16.4 80 80 N 6 9 30.06 1018 10 16.09344 0 0
1:15 pm 13:15 Cloudy with Thunderstorms 67 19.2 62 16.6 85 85 N 5 7 30.09 1019 10 16.09344 0.01 0.254
1:35 pm 13:35 Cloudy with Rain 65 18.5 61 16.3 87 87 N 6 9 30.12 1020 7 11.265408 0.05 1.27
1:55 pm 13:55 Cloudy with Rain 65 18.1 62 16.5 90 90 NNW 3 6 30.12 1020 5 8.04672 0.11 2.794
2:15 pm 14:15 Cloudy with Rain 64 18 62 16.5 91 91 NW 3 6 30.12 1020 4 6.437376 0.06 1.524
2:35 pm 14:35 Cloudy with Rain 64 18 62 16.7 92 92 NNW 5 7 30.12 1020 5 8.04672 0.09 2.286
2:55 pm 14:55 Cloudy with Light Rain 65 18.1 62 16.7 92 92 N 6 9 30.12 1020 7 11.265408 0.11 2.794
3:15 pm 15:15 Cloudy with Light Rain 64 18 61 16.2 89 89 ENE 10 17 30.09 1019 7 11.265408 0.02 0.508
3:35 pm 15:35 Cloudy with Light Rain 64 18 61 16.1 89 89 ENE 8 13 30.06 1018 10 16.09344 0.03 0.762
3:55 pm 15:55 Mostly Cloudy with Light Rain 65 18.5 62 16.5 88 88 NE 9 15 30.06 1018 10 16.09344 0.03 0.762
4:15 pm 16:15 Partly Cloudy 66 19.1 63 17 88 88 NE 10 17 30.06 1018 10 16.09344 0 0
4:35 pm 16:35 Partly Cloudy 68 20 62 16.9 82 82 NE 13 20 30.06 1018 10 16.09344 0.01 0.254
4:55 pm 16:55 Partly Cloudy 69 20.4 62 16.6 79 79 NE 12 19 30.06 1018 10 16.09344 0.01 0.254
5:15 pm 17:15 Sunny 69 20.6 61 15.9 75 75 ENE 9 15 30.06 1018 10 16.09344 0 0
5:35 pm 17:35 Sunny 70 21.1 62 16.7 76 76 ENE 9 15 30.03 1017 10 16.09344 0 0
5:55 pm 17:55 Mostly Cloudy 69 20.6 61 16.1 76 76 NNE 10 17 30.06 1018 10 16.09344 0 0
6:15 pm 18:15 Cloudy 69 20.8 61 16 74 74 NNE 7 11 30.03 1017 10 16.09344 0 0
6:35 pm 18:35 Cloudy 69 20.4 60 15.3 73 73 NE 9 15 30.06 1018 10 16.09344 0 0
6:55 pm 18:55 Cloudy 68 20.1 60 15.6 75 75 N 5 7 30.06 1018 10 16.09344 0 0
7:15 pm 19:15 Cloudy 68 20 61 16.1 78 78 N 3 6 30.06 1018 10 16.09344 0 0
7:35 pm 19:35 Cloudy 68 19.8 61 16 79 79 Calm 30.06 1018 10 16.09344 0 0
7:55 pm 19:55 Cloudy 67 19.5 60 15.6 78 78 N 3 6 30.06 1018 10 16.09344 0 0
8:15 pm 20:15 Cloudy 67 19.2 60 15.5 79 79 Calm 30.06 1018 10 16.09344 0 0
8:35 pm 20:35 Cloudy 66 19 60 15.5 80 80 Calm 30.06 1018 10 16.09344 0 0
8:55 pm 20:55 Cloudy 65 18.4 61 16.2 87 87 Calm 30.06 1018 10 16.09344 0 0
9:15 pm 21:15 Cloudy 65 18.5 61 16 85 85 Calm 30.06 1018 10 16.09344 0 0
9:35 pm 21:35 Cloudy 65 18.4 61 15.9 85 85 N 3 6 30.06 1018 10 16.09344 0 0
9:55 pm 21:55 Cloudy 65 18.5 59 14.9 80 80 N 3 6 30.09 1019 10 16.09344 0 0
10:15 pm 22:15 Cloudy 65 18.3 59 15.2 82 82 N 3 6 30.09 1019 10 16.09344 0 0
10:35 pm 22:35 Cloudy 64 18 60 15.5 85 85 N 3 6 30.09 1019 10 16.09344 0 0
10:55 pm 22:55 Cloudy 64 17.7 60 15.3 86 86 N 3 6 30.06 1018 10 16.09344 0 0
11:15 pm 23:15 Cloudy 63 17.2 60 15.5 90 90 N 5 7 30.06 1018 10 16.09344 0 0
11:35 pm 23:35 Mostly Cloudy 62 16.6 59 15.2 92 92 N 3 6 30.12 1020 10 16.09344 0 0
11:55 pm 23:55 Partly Cloudy 62 16.5 59 15 91 91 NNE 5 7 30.12 1020 10 16.09344 0 0

Powered by AerisWeather